Schmitt & Hwy 128 CA US current weather conditions

sailwx.info

Wind from 215 at 4 knots gusting 7

Air temperature 25.1° C
Dewpoint 14.5° C

Last reported at 2019-Aug-21 01:50 UTC.
Time now 2019-Aug-21 02:47 UTC

Location: N 38°38' W 122°40'.
View on Google Maps.

See reports from other nearby stations

  
Tides and Currents Weather Stations Pressure Air Temp Water Temp Dewpoint Dewpoint Depression Visibility Wind Speed Wind Dir Waves Ship Positions
date/time (UTC)wind fromknots sea level pressurealtimeterstation pressurevisibilityair tempwater tempwave heightnotes
2019-Aug-21 01:50 215 4 gusting 7 25.1
2019-Aug-21 01:40 217 3 gusting 6 25.1
2019-Aug-21 01:30 208 5 gusting 8 25.0
2019-Aug-21 01:20 201 5 gusting 8 25.4
2019-Aug-21 01:10 199 5 gusting 8 25.7
2019-Aug-21 01:00 204 5 gusting 8 26.1
2019-Aug-21 00:50 201 5 gusting 9 26.2
2019-Aug-21 00:40 190 7 gusting 10 26.4
2019-Aug-21 00:30 207 7 gusting 12 26.6
2019-Aug-21 00:20 215 6 gusting 10 27.3
2019-Aug-21 00:10 211 5 gusting 10 27.8
2019-Aug-21 00:00 193 3 gusting 6 27.4
2019-Aug-20 23:50 200 4 gusting 7 27.4
2019-Aug-20 23:40 194 4 gusting 8 27.2
2019-Aug-20 23:30 172 4 gusting 6 27.1
2019-Aug-20 23:20 182 5 gusting 8 27.2
2019-Aug-20 23:10 226 5 gusting 8 27.4
2019-Aug-20 23:00 210 5 gusting 9 27.1
2019-Aug-20 22:50 227 4 gusting 9 27.2
2019-Aug-20 22:40 222 2 gusting 10 26.9
2019-Aug-20 22:30 195 4 gusting 8 26.6
2019-Aug-20 22:20 192 4 gusting 8 27.1
2019-Aug-20 22:10 215 4 gusting 11 26.6
2019-Aug-20 22:00 242 3 gusting 7 26.5
2019-Aug-20 21:50 240 2 gusting 6 26.0
2019-Aug-20 21:40 241 2 gusting 8 25.9
2019-Aug-20 21:30 253 4 gusting 10 25.3
2019-Aug-20 21:20 208 2 gusting 6 25.2
2019-Aug-20 21:10 237 3 gusting 7 24.9
2019-Aug-20 21:00 264 3 gusting 8 24.6
2019-Aug-20 20:50 257 4 gusting 8 24.5
2019-Aug-20 20:40 217 3 gusting 7 24.2
2019-Aug-20 20:30 229 3 gusting 8 23.9
2019-Aug-20 20:20 171 3 gusting 6 23.6
2019-Aug-20 20:10 228 2 gusting 6 23.1
2019-Aug-20 20:00 182 2 gusting 6 22.5
2019-Aug-20 19:50 224 1 gusting 4 21.8
2019-Aug-20 19:40 255 3 gusting 7 21.2
2019-Aug-20 19:30 220 4 gusting 9 21.1
2019-Aug-20 19:20 259 3 gusting 7 21.1
2019-Aug-20 19:10 252 3 gusting 6 20.3
2019-Aug-20 19:00 292 3 gusting 6 19.9
2019-Aug-20 18:50 218 1 gusting 6 19.4
2019-Aug-20 18:40 193 2 gusting 5 18.6
2019-Aug-20 18:30 323 2 gusting 4 17.8
2019-Aug-20 18:20 302 2 gusting 5 17.3
2019-Aug-20 18:10 251 2 gusting 5 16.7
2019-Aug-20 18:00 119 2 gusting 4 15.9
2019-Aug-20 17:50 299 1 gusting 3 15.6
2019-Aug-20 17:40 230 1 gusting 3 14.9
2019-Aug-20 17:30 254 2 gusting 4 14.6
2019-Aug-20 17:20 306 1 gusting 4 14.6
2019-Aug-20 17:10 302 1 gusting 3 14.3
2019-Aug-20 17:00 298 1 gusting 4 14.2
2019-Aug-20 16:50 285 1 gusting 3 13.9
2019-Aug-20 16:40 246 1 gusting 4 13.8
2019-Aug-20 16:30 252 1 gusting 3 13.6
2019-Aug-20 16:20 239 1 gusting 3 13.5
2019-Aug-20 16:10 186 0 gusting 2 13.3
2019-Aug-20 16:00 285 1 gusting 4 13.1
2019-Aug-20 15:50 329 1 gusting 2 13.0
2019-Aug-20 15:40 002 0 gusting 2 13.0
2019-Aug-20 15:30 073 0 gusting 1 12.9
2019-Aug-20 15:20 309 1 gusting 3 12.8
2019-Aug-20 15:10 120 0 gusting 2 12.9
2019-Aug-20 15:00 007 1 gusting 3 12.7
2019-Aug-20 14:50 264 2 gusting 3 12.7
2019-Aug-20 14:40 257 2 gusting 4 12.8
2019-Aug-20 14:30 259 1 gusting 2 12.9
2019-Aug-20 14:20 241 0 gusting 1 12.8
2019-Aug-20 14:10 243 0 gusting 1 12.9
2019-Aug-20 14:00 087 1 gusting 2 12.9
2019-Aug-20 13:50 197 0 gusting 1 12.8
2019-Aug-20 13:40 285 0 gusting 1 12.8
2019-Aug-20 13:30 325 0 gusting 2 12.7
2019-Aug-20 13:20 270 1 gusting 2 12.7
2019-Aug-20 13:10 270 2 gusting 4 12.7
2019-Aug-20 13:00 216 1 gusting 2 12.7
2019-Aug-20 12:50 197 1 gusting 2 12.6
2019-Aug-20 12:40 202 1 gusting 2 12.6
2019-Aug-20 12:30 204 2 gusting 4 12.5
2019-Aug-20 12:20 203 1 gusting 2 12.6
2019-Aug-20 12:10 210 0 gusting 2 12.6
2019-Aug-20 12:00 236 1 gusting 2 12.6
2019-Aug-20 11:50 194 2 gusting 3 12.6
2019-Aug-20 11:40 197 3 gusting 4 12.6
2019-Aug-20 11:30 191 2 gusting 3 12.7
2019-Aug-20 11:20 202 1 gusting 2 12.8
2019-Aug-20 11:10 231 0 gusting 1 12.9
2019-Aug-20 11:00 242 0 gusting 2 13.0
2019-Aug-20 10:50 236 0 gusting 1 13.0
2019-Aug-20 10:40 004 0 gusting 0 13.0
2019-Aug-20 10:30 352 0 gusting 1 13.1
2019-Aug-20 10:20 357 0 gusting 2 13.1
2019-Aug-20 10:10 010 0 gusting 1 13.1
2019-Aug-20 10:00 151 0 gusting 0 13.1
2019-Aug-20 09:50 037 0 gusting 0 12.8
2019-Aug-20 09:40 035 0 gusting 1 12.6
2019-Aug-20 09:30 047 1 gusting 2 12.3
2019-Aug-20 09:20 348 0 gusting 1 12.1
2019-Aug-20 09:10 351 1 gusting 2 12.1
2019-Aug-20 09:00 023 1 gusting 2 12.2
2019-Aug-20 08:50 005 0 gusting 1 12.3
2019-Aug-20 08:40 025 0 gusting 2 12.4
2019-Aug-20 08:30 029 1 gusting 3 12.5
2019-Aug-20 08:20 022 0 gusting 3 12.7
2019-Aug-20 08:10 018 1 gusting 1 12.8
2019-Aug-20 08:00 008 0 gusting 1 12.8
2019-Aug-20 07:50 011 1 gusting 2 13.0
2019-Aug-20 07:40 028 1 gusting 2 13.1
2019-Aug-20 07:30 013 0 gusting 1 13.3
2019-Aug-20 07:20 058 0 gusting 0 13.5
2019-Aug-20 07:10 041 1 gusting 2 13.7
2019-Aug-20 07:00 334 1 gusting 2 13.8
2019-Aug-20 06:50 333 0 gusting 1 13.9
2019-Aug-20 06:40 047 0 gusting 1 14.1
2019-Aug-20 06:30 040 1 gusting 2 14.2
2019-Aug-20 06:20 085 0 gusting 0 14.4
2019-Aug-20 06:10 017 0 gusting 1 14.7
2019-Aug-20 06:00 021 0 gusting 1 15.0
2019-Aug-20 05:50 239 0 gusting 2 15.3
2019-Aug-20 05:40 283 0 gusting 2 15.6
2019-Aug-20 05:30 274 0 gusting 3 15.6
2019-Aug-20 05:20 307 0 gusting 1 15.8
2019-Aug-20 05:10 026 0 gusting 1 16.0
2019-Aug-20 05:00 038 1 gusting 3 16.4
2019-Aug-20 04:50 024 1 gusting 2 16.7
2019-Aug-20 04:40 355 1 gusting 2 17.0
2019-Aug-20 04:30 343 0 gusting 1 17.3
2019-Aug-20 04:20 321 1 gusting 2 17.5
2019-Aug-20 04:10 343 1 gusting 2 17.8
2019-Aug-20 04:00 314 0 gusting 1 18.1
2019-Aug-20 03:50 241 1 gusting 2 18.3
2019-Aug-20 03:40 229 1 gusting 3 18.7
2019-Aug-20 03:30 197 1 gusting 3 19.0
2019-Aug-20 03:20 190 2 gusting 4 19.2
2019-Aug-20 03:10 177 1 gusting 3 19.6
2019-Aug-20 03:00 155 2 gusting 4 20.0
2019-Aug-20 02:50 158 3 gusting 6 20.4
2019-Aug-20 02:40 150 4 gusting 7 20.9
2019-Aug-20 02:30 153 4 gusting 7 21.4
2019-Aug-20 02:20 168 3 gusting 6 22.2
2019-Aug-20 02:10 208 4 gusting 7 23.0
2019-Aug-20 02:00 222 3 gusting 6 23.4
2019-Aug-20 01:50 223 3 gusting 6 23.7
2019-Aug-20 01:40 212 5 gusting 8 23.7
2019-Aug-20 01:30 212 4 gusting 8 23.9
2019-Aug-20 01:20 193 5 gusting 9 24.2
2019-Aug-20 01:10 190 6 gusting 9 24.4
2019-Aug-20 01:00 184 6 gusting 9 24.4
2019-Aug-20 00:50 189 6 gusting 9 24.9
2019-Aug-20 00:40 208 5 gusting 9 24.9
2019-Aug-20 00:30 204 6 gusting 10 25.2
2019-Aug-20 00:20 223 4 gusting 8 25.8
2019-Aug-20 00:10 233 4 gusting 8 25.9
2019-Aug-20 00:00 224 4 gusting 9 26.1
2019-Aug-19 23:50 245 4 gusting 9 25.7
2019-Aug-19 23:40 224 5 gusting 9 26.0
2019-Aug-19 23:30 247 6 gusting 11 25.7
2019-Aug-19 23:20 239 5 gusting 10 26.1
2019-Aug-19 23:10 256 5 gusting 8 26.4
2019-Aug-19 23:00 254 3 gusting 7 25.8
2019-Aug-19 22:50 253 3 gusting 7 25.6
2019-Aug-19 22:40 250 3 gusting 10 25.7
2019-Aug-19 22:30 248 3 gusting 8 25.4
2019-Aug-19 22:20 268 3 gusting 9 24.9
2019-Aug-19 22:10 264 4 gusting 9 24.7
2019-Aug-19 22:00 255 4 gusting 8 24.8
2019-Aug-19 21:50 239 3 gusting 9 24.5
2019-Aug-19 21:40 219 4 gusting 9 24.3
2019-Aug-19 21:30 185 4 gusting 9 24.0
2019-Aug-19 21:20 242 3 gusting 7 24.0
2019-Aug-19 21:10 253 3 gusting 8 23.7
2019-Aug-19 21:00 243 3 gusting 8 23.9
2019-Aug-19 20:50 238 3 gusting 7 23.4
2019-Aug-19 20:40 245 3 gusting 8 23.0
2019-Aug-19 20:30 291 2 gusting 6 22.3
2019-Aug-19 20:20 240 2 gusting 6 21.8
2019-Aug-19 20:10 284 3 gusting 7 21.5
2019-Aug-19 20:00 270 3 gusting 7 21.0
2019-Aug-19 19:50 172 2 gusting 5 20.5
2019-Aug-19 19:40 230 3 gusting 6 20.1
2019-Aug-19 19:30 258 3 gusting 7 19.6
2019-Aug-19 19:20 285 2 gusting 6 19.2
2019-Aug-19 19:10 271 2 gusting 7 19.3
2019-Aug-19 19:00 207 3 gusting 8 18.3
2019-Aug-19 18:50 213 2 gusting 7 17.8
2019-Aug-19 18:40 260 3 gusting 6 17.1
2019-Aug-19 18:30 243 4 gusting 9 16.8
2019-Aug-19 18:20 220 3 gusting 7 17.2
2019-Aug-19 18:10 206 2 gusting 7 16.7
2019-Aug-19 18:00 246 2 gusting 5 15.9
2019-Aug-19 17:50 231 2 gusting 6 15.7
2019-Aug-19 17:40 234 2 gusting 6 15.6
2019-Aug-19 17:30 242 2 gusting 6 15.1
2019-Aug-19 17:20 157 1 gusting 4 14.9
2019-Aug-19 17:10 218 1 gusting 4 14.5
2019-Aug-19 17:00 244 2 gusting 4 13.9
2019-Aug-19 16:50 187 2 gusting 5 13.9
2019-Aug-19 16:40 177 1 gusting 3 13.7
2019-Aug-19 16:30 334 1 gusting 3 13.4
2019-Aug-19 16:20 219 1 gusting 4 13.2
2019-Aug-19 16:10 184 2 gusting 4 13.0
2019-Aug-19 16:00 193 1 gusting 4 13.0
2019-Aug-19 15:50 194 0 gusting 2 12.9
2019-Aug-19 15:40 168 0 gusting 2 12.8
2019-Aug-19 15:30 206 2 gusting 4 12.7
2019-Aug-19 15:20 210 2 gusting 4 12.8
2019-Aug-19 15:10 223 0 gusting 2 12.7
2019-Aug-19 15:00 262 1 gusting 3 12.7
2019-Aug-19 14:50 233 1 gusting 3 12.7
2019-Aug-19 14:40 249 1 gusting 2 12.7
2019-Aug-19 14:30 260 1 gusting 3 12.9
2019-Aug-19 14:20 002 0 gusting 1 12.7
2019-Aug-19 14:10 012 0 gusting 2 12.7
2019-Aug-19 14:00 357 1 gusting 3 12.6
2019-Aug-19 13:50 301 1 gusting 3 12.6
2019-Aug-19 13:40 255 2 gusting 4 12.6
2019-Aug-19 13:30 226 1 gusting 4 12.6
2019-Aug-19 13:20 207 2 gusting 3 12.6
2019-Aug-19 13:10 225 1 gusting 3 12.6
2019-Aug-19 13:00 240 2 gusting 4 12.7
2019-Aug-19 12:50 236 1 gusting 2 12.7
2019-Aug-19 12:40 226 1 gusting 3 12.7
2019-Aug-19 12:30 225 1 gusting 3 12.7
2019-Aug-19 12:20 205 2 gusting 3 12.7
2019-Aug-19 12:10 199 2 gusting 4 12.7
2019-Aug-19 12:00 210 2 gusting 4 12.8
2019-Aug-19 11:50 206 0 gusting 2 12.9
2019-Aug-19 11:40 287 1 gusting 4 13.0
2019-Aug-19 11:30 321 1 gusting 3 13.1
2019-Aug-19 11:20 305 1 gusting 2 13.0
2019-Aug-19 11:10 247 0 gusting 2 13.0
2019-Aug-19 11:00 325 1 gusting 3 13.0
2019-Aug-19 10:50 310 0 gusting 2 12.9
2019-Aug-19 10:40 351 0 gusting 1 12.9
2019-Aug-19 10:30 359 1 gusting 2 12.9
2019-Aug-19 10:20 341 1 gusting 2 12.9
2019-Aug-19 10:10 325 1 gusting 3 13.0
2019-Aug-19 10:00 222 1 gusting 2 13.0
2019-Aug-19 09:50 208 1 gusting 3 13.0
2019-Aug-19 09:40 219 2 gusting 4 13.0
2019-Aug-19 09:30 234 2 gusting 3 13.1
2019-Aug-19 09:20 220 2 gusting 4 13.1
2019-Aug-19 09:10 236 1 gusting 3 13.3
2019-Aug-19 09:00 259 1 gusting 3 13.3
2019-Aug-19 08:50 283 2 gusting 5 13.3
2019-Aug-19 08:40 294 1 gusting 2 13.3
2019-Aug-19 08:30 197 1 gusting 2 13.3
2019-Aug-19 08:20 245 1 gusting 3 13.3
2019-Aug-19 08:10 261 2 gusting 4 13.3
2019-Aug-19 08:00 244 2 gusting 3 13.3
2019-Aug-19 07:50 229 1 gusting 3 13.4
2019-Aug-19 07:40 274 1 gusting 3 13.5
2019-Aug-19 07:30 272 1 gusting 3 13.4
2019-Aug-19 07:20 276 1 gusting 2 13.3
2019-Aug-19 07:10 286 1 gusting 3 13.2
2019-Aug-19 07:00 296 2 gusting 4 13.3
2019-Aug-19 06:50 304 1 gusting 4 13.3
2019-Aug-19 06:40 290 2 gusting 3 13.4
2019-Aug-19 06:30 274 2 gusting 3 13.5
2019-Aug-19 06:20 270 2 gusting 4 13.7
2019-Aug-19 06:10 271 2 gusting 4 13.9
2019-Aug-19 06:00 259 2 gusting 3 14.1
2019-Aug-19 05:50 263 2 gusting 3 14.3
2019-Aug-19 05:40 265 2 gusting 4 14.6
2019-Aug-19 05:30 259 2 gusting 3 14.8
2019-Aug-19 05:20 271 2 gusting 3 15.1
2019-Aug-19 05:10 279 2 gusting 5 15.3
2019-Aug-19 05:00 283 2 gusting 4 15.6
2019-Aug-19 04:50 258 2 gusting 4 15.8
2019-Aug-19 04:40 246 2 gusting 3 16.2
2019-Aug-19 04:30 242 1 gusting 2 16.5
2019-Aug-19 04:20 283 0 gusting 2 16.7
2019-Aug-19 04:10 272 1 gusting 2 16.8
2019-Aug-19 04:00 226 1 gusting 2 16.9
2019-Aug-19 03:50 234 1 gusting 4 17.3
2019-Aug-19 03:40 247 3 gusting 5 17.7
2019-Aug-19 03:30 255 3 gusting 5 18.2
2019-Aug-19 03:20 256 4 gusting 6 18.5
2019-Aug-19 03:10 268 3 gusting 5 19.0
2019-Aug-19 03:00 274 3 gusting 5 19.4
2019-Aug-19 02:50 260 4 gusting 6 19.9
2019-Aug-19 02:40 254 3 gusting 5 20.5
2019-Aug-19 02:30 254 4 gusting 6 20.9
2019-Aug-19 02:20 248 4 gusting 6 21.4
2019-Aug-19 02:10 232 3 gusting 7 21.9
2019-Aug-19 02:00 210 4 gusting 6 21.9